TimeCST,TemperatureF,Dew PointF,Humidity,Sea Level PressureIn,VisibilityMPH,Wind Direction,Wind SpeedMPH,Gust SpeedMPH,PrecipitationIn,Events,Conditions,WindDirDegrees,DateUTC
12:54 AM,45.0,35.1,68,30.41,10.0,Calm,Calm,-,N/A,,Clear,0,2012-11-17 06:54:00
1:54 AM,41.0,37.0,86,31.14,10.0,Calm,Calm,-,N/A,,Clear,0,2012-11-17 07:54:00
2:54 AM,37.9,35.1,89,30.41,10.0,Calm,Calm,-,N/A,,Clear,0,2012-11-17 08:54:00
3:54 AM,37.0,34.0,89,30.40,9.0,Calm,Calm,-,N/A,,Clear,0,2012-11-17 09:54:00
4:54 AM,37.0,34.0,89,30.40,8.0,Calm,Calm,-,N/A,,Clear,0,2012-11-17 10:54:00
5:54 AM,37.9,35.1,89,30.42,10.0,Calm,Calm,-,N/A,,Clear,0,2012-11-17 11:54:00
6:54 AM,39.0,35.1,86,30.44,10.0,Calm,Calm,-,N/A,,Clear,0,2012-11-17 12:54:00
7:54 AM,45.0,37.9,76,30.45,10.0,Calm,Calm,-,N/A,,Clear,0,2012-11-17 13:54:00
8:54 AM,51.1,37.9,61,30.45,10.0,Variable,3.5,-,N/A,,Clear,0,2012-11-17 14:54:00
9:54 AM,57.9,37.9,47,30.45,10.0,NE,3.5,-,N/A,,Clear,40,2012-11-17 15:54:00
10:54 AM,63.0,37.0,38,30.45,10.0,Variable,4.6,-,N/A,,Clear,0,2012-11-17 16:54:00
11:54 AM,64.9,37.0,36,30.43,10.0,Calm,Calm,-,N/A,,Clear,0,2012-11-17 17:54:00
12:54 PM,68.0,34.0,28,30.40,10.0,Variable,3.5,-,N/A,,Clear,0,2012-11-17 18:54:00
1:54 PM,69.1,32.0,25,30.37,10.0,Variable,3.5,-,N/A,,Clear,0,2012-11-17 19:54:00
2:54 PM,69.1,34.0,27,30.36,10.0,Calm,Calm,-,N/A,,Clear,0,2012-11-17 20:54:00
3:54 PM,68.0,34.0,28,31.09,10.0,Calm,Calm,-,N/A,,Clear,0,2012-11-17 21:54:00
4:54 PM,59.0,39.0,48,30.37,10.0,Calm,Calm,-,N/A,,Clear,0,2012-11-17 22:54:00
5:54 PM,52.0,39.0,61,30.37,10.0,Calm,Calm,-,N/A,,Clear,0,2012-11-17 23:54:00
6:54 PM,48.9,39.0,69,30.38,10.0,Calm,Calm,-,N/A,,Clear,0,2012-11-18 00:54:00
7:54 PM,46.0,39.9,79,30.39,10.0,Calm,Calm,-,N/A,,Clear,0,2012-11-18 01:54:00
8:54 PM,46.0,39.9,79,30.41,6.0,Calm,Calm,-,N/A,,Haze,0,2012-11-18 02:54:00
9:54 PM,46.0,39.0,76,30.41,10.0,Calm,Calm,-,N/A,,Clear,0,2012-11-18 03:54:00
10:54 PM,48.0,35.1,61,30.40,10.0,Calm,Calm,-,N/A,,Clear,0,2012-11-18 04:54:00
11:54 PM,45.0,36.0,71,30.40,10.0,Calm,Calm,-,N/A,,Clear,0,2012-11-18 05:54:00